AEE4FA EDDF-LGIR

Flight info

Callsign AEE4FA
Flight time N/A
Altitude 35000
Route CINDY8S/18 CINDY Z74 LAMPU DCT NOMBO Y161 MAH DCT VAVOR DCT RADIZ DCT LUMUS DCT EBITI DCT DEVUL DCT EVTON DCT SOLGU DCT NILKU DCT AKIKA DCT MAVAR DCT BITLA UN132 KEA UL607 GIVIS UT514 XAVIS
Aircraft A321/M-SDE3FGHIRWY/LB1

Departure

Time N/A
Airport Frankfurt Main Airport (EDDF)

Arrival

Time 2026-05-07 18:57
Airport Heraklion International Nikos Kazantzakis Airport (LGIR)
Time Latitude Longitude Altitude Speed Heading
2026-05-07 17:48 42.49893 19.64234 35062 ft 495 kts 145°
2026-05-07 17:48 42.47199 19.67178 35061 ft 495 kts 146°
2026-05-07 17:49 42.41877 19.73000 35062 ft 495 kts 146°
2026-05-07 17:49 42.36519 19.78828 35063 ft 496 kts 146°
2026-05-07 17:50 42.31149 19.84644 35063 ft 496 kts 146°
2026-05-07 17:50 42.25770 19.90450 35062 ft 497 kts 146°
2026-05-07 17:51 42.20379 19.96253 35063 ft 497 kts 146°
2026-05-07 17:51 42.14992 20.02044 35063 ft 497 kts 146°
2026-05-07 17:52 42.09605 20.07822 35063 ft 497 kts 146°
2026-05-07 17:52 42.04216 20.13587 35063 ft 496 kts 146°
2026-05-07 17:53 41.98789 20.19380 35067 ft 497 kts 146°
2026-05-07 17:53 41.93409 20.25108 35074 ft 498 kts 146°
2026-05-07 17:54 41.87976 20.30875 35081 ft 498 kts 146°
2026-05-07 17:54 41.82556 20.36592 35087 ft 498 kts 146°
2026-05-07 17:55 41.77135 20.42315 35089 ft 498 kts 146°
2026-05-07 17:55 41.71726 20.48020 35090 ft 498 kts 146°
2026-05-07 17:56 41.66272 20.53766 35091 ft 499 kts 146°
2026-05-07 17:56 41.60834 20.59520 35091 ft 500 kts 146°
2026-05-07 17:57 41.56333 20.64278 35090 ft 500 kts 146°
2026-05-07 17:57 41.49958 20.71025 35090 ft 500 kts 147°
2026-05-07 17:58 41.44527 20.76752 35091 ft 500 kts 147°
2026-05-07 17:58 41.39072 20.82477 35091 ft 501 kts 147°
2026-05-07 17:59 41.33631 20.88168 35095 ft 501 kts 147°
2026-05-07 17:59 41.28164 20.93873 35101 ft 501 kts 147°
2026-05-07 18:00 41.22671 20.99591 35109 ft 502 kts 147°
2026-05-07 18:00 41.17198 21.05275 35114 ft 502 kts 147°
2026-05-07 18:01 41.11697 21.10976 35116 ft 502 kts 147°
2026-05-07 18:01 41.06207 21.16651 35117 ft 503 kts 147°
2026-05-07 18:02 40.97944 21.25167 35117 ft 505 kts 147°
2026-05-07 18:03 40.92402 21.30861 35116 ft 505 kts 147°
2026-05-07 18:03 40.86840 21.36492 35115 ft 505 kts 150°
2026-05-07 18:04 40.81115 21.41844 35116 ft 505 kts 150°
2026-05-07 18:04 40.75374 21.47171 35116 ft 506 kts 150°
2026-05-07 18:05 40.69610 21.52515 35116 ft 508 kts 150°
2026-05-07 18:05 40.63840 21.57856 35111 ft 509 kts 151°
2026-05-07 18:06 40.58064 21.63193 35099 ft 510 kts 150°
2026-05-07 18:06 40.52269 21.68557 35108 ft 511 kts 151°
2026-05-07 18:07 40.46431 21.73967 35110 ft 512 kts 151°
2026-05-07 18:07 40.40579 21.79374 35106 ft 521 kts 153°
2026-05-07 18:08 40.34643 21.84793 35110 ft 529 kts 153°
2026-05-07 18:08 40.28570 21.90332 35111 ft 533 kts 153°
2026-05-07 18:09 40.22493 21.95875 35108 ft 534 kts 153°
2026-05-07 18:09 40.16408 22.01413 35106 ft 535 kts 153°
2026-05-07 18:10 40.10335 22.06933 35098 ft 535 kts 153°
2026-05-07 18:10 40.04216 22.12480 35094 ft 536 kts 153°
2026-05-07 18:11 39.98127 22.17981 35098 ft 535 kts 153°
2026-05-07 18:11 39.92017 22.23495 35090 ft 536 kts 153°
2026-05-07 18:12 39.85896 22.28995 35089 ft 535 kts 153°
2026-05-07 18:12 39.79785 22.34459 35090 ft 536 kts 153°
2026-05-07 18:13 39.73647 22.39945 35090 ft 536 kts 153°
2026-05-07 18:13 39.67532 22.45412 35094 ft 535 kts 153°
2026-05-07 18:14 39.61426 22.50857 35094 ft 536 kts 153°
2026-05-07 18:14 39.55285 22.56325 35088 ft 536 kts 153°
2026-05-07 18:15 39.49167 22.61761 35084 ft 536 kts 152°
2026-05-07 18:15 39.43013 22.67223 35077 ft 537 kts 153°
2026-05-07 18:16 39.36870 22.72695 35085 ft 536 kts 153°
2026-05-07 18:16 39.30723 22.78133 35079 ft 537 kts 152°
2026-05-07 18:17 39.24575 22.83548 35088 ft 537 kts 153°
2026-05-07 18:17 39.18450 22.88930 35086 ft 538 kts 152°
2026-05-07 18:18 39.12264 22.94351 35084 ft 538 kts 152°
2026-05-07 18:18 39.06082 22.99760 35080 ft 539 kts 152°
2026-05-07 18:19 38.99916 23.05144 35074 ft 539 kts 152°
2026-05-07 18:19 38.93725 23.10540 35073 ft 540 kts 152°
2026-05-07 18:20 38.87471 23.15972 35076 ft 540 kts 152°
2026-05-07 18:20 38.81368 23.21244 35084 ft 541 kts 152°
2026-05-07 18:21 38.75129 23.26632 35087 ft 542 kts 152°
2026-05-07 18:21 38.68911 23.32002 35090 ft 542 kts 152°
2026-05-07 18:22 38.62671 23.37378 35090 ft 544 kts 152°
2026-05-07 18:22 38.56405 23.42767 35090 ft 544 kts 151°
2026-05-07 18:23 38.50142 23.48143 35091 ft 545 kts 151°
2026-05-07 18:23 38.43881 23.53503 35090 ft 547 kts 151°
2026-05-07 18:24 38.37541 23.58920 35091 ft 548 kts 151°
2026-05-07 18:24 38.31242 23.64294 35095 ft 549 kts 151°
2026-05-07 18:25 38.24941 23.69672 35094 ft 550 kts 152°
2026-05-07 18:25 38.18581 23.75084 35095 ft 550 kts 152°
2026-05-07 18:26 38.12262 23.80555 35110 ft 552 kts 150°
2026-05-07 18:26 38.06009 23.86101 35110 ft 553 kts 150°
2026-05-07 18:27 37.99688 23.91674 35115 ft 553 kts 150°
2026-05-07 18:27 37.93398 23.97183 35129 ft 553 kts 150°
2026-05-07 18:28 37.87069 24.02704 35135 ft 553 kts 150°
2026-05-07 18:28 37.80738 24.08196 35142 ft 553 kts 150°
2026-05-07 18:29 37.74453 24.13652 35145 ft 552 kts 150°
2026-05-07 18:29 37.68125 24.19142 35145 ft 552 kts 150°
2026-05-07 18:30 37.61829 24.24590 35146 ft 552 kts 150°
2026-05-07 18:30 37.55521 24.30019 35145 ft 551 kts 152°
2026-05-07 18:31 37.49041 24.35175 35146 ft 549 kts 153°
2026-05-07 18:31 37.42603 24.40213 35147 ft 549 kts 153°
2026-05-07 18:32 37.36137 24.45271 35141 ft 549 kts 153°
2026-05-07 18:32 37.29672 24.50326 35144 ft 549 kts 153°
2026-05-07 18:33 37.23188 24.55384 35128 ft 549 kts 152°
2026-05-07 18:33 37.16747 24.60403 35139 ft 548 kts 152°
2026-05-07 18:34 37.10234 24.65465 35132 ft 548 kts 153°
2026-05-07 18:34 37.03710 24.70551 35143 ft 548 kts 153°
2026-05-07 18:35 36.97224 24.75582 35139 ft 548 kts 153°
2026-05-07 18:35 36.90756 24.80577 35137 ft 548 kts 152°
2026-05-07 18:36 36.84268 24.85597 35136 ft 548 kts 153°
2026-05-07 18:36 36.77800 24.90584 34539 ft 541 kts 153°
2026-05-07 18:36 36.74620 24.93029 33653 ft 545 kts 153°
2026-05-07 18:37 36.71389 24.95510 32771 ft 548 kts 152°
2026-05-07 18:37 36.68188 24.97969 32005 ft 547 kts 152°
2026-05-07 18:37 36.64972 25.00440 31407 ft 541 kts 152°
2026-05-07 18:37 36.61792 25.02884 30926 ft 533 kts 151°
2026-05-07 18:38 36.58669 25.05281 30466 ft 526 kts 151°
2026-05-07 18:38 36.55584 25.07647 30031 ft 518 kts 151°
2026-05-07 18:38 36.52544 25.09974 29517 ft 512 kts 151°
2026-05-07 18:38 36.49548 25.12262 28905 ft 509 kts 151°
2026-05-07 18:39 36.46529 25.14562 28272 ft 506 kts 151°
2026-05-07 18:39 36.43572 25.16814 27790 ft 499 kts 151°
2026-05-07 18:39 36.40633 25.19050 27326 ft 492 kts 151°
2026-05-07 18:39 36.37744 25.21248 26859 ft 485 kts 151°
2026-05-07 18:40 36.34929 25.23387 26381 ft 478 kts 151°
2026-05-07 18:40 36.32120 25.25518 25885 ft 472 kts 150°
2026-05-07 18:40 36.29339 25.27627 25386 ft 466 kts 150°
2026-05-07 18:40 36.26610 25.29696 24698 ft 451 kts 150°
2026-05-07 18:41 36.24000 25.31670 23605 ft 445 kts 150°
2026-05-07 18:41 36.21378 25.33650 22549 ft 441 kts 150°
2026-05-07 18:41 36.18787 25.35608 21777 ft 434 kts 150°
2026-05-07 18:41 36.16255 25.37521 21108 ft 425 kts 150°
2026-05-07 18:42 36.13750 25.39356 20656 ft 413 kts 154°
2026-05-07 18:42 36.11185 25.40885 20207 ft 412 kts 160°
2026-05-07 18:42 36.08512 25.42100 19732 ft 411 kts 164°
2026-05-07 18:42 36.05811 25.43189 19256 ft 408 kts 165°
2026-05-07 18:43 36.03118 25.44251 18779 ft 405 kts 165°
2026-05-07 18:43 36.00472 25.45297 18307 ft 402 kts 165°
2026-05-07 18:43 35.97824 25.46349 17830 ft 398 kts 164°
2026-05-07 18:43 35.95225 25.47388 17359 ft 395 kts 164°
2026-05-07 18:44 35.92622 25.48431 16883 ft 392 kts 164°
2026-05-07 18:44 35.90026 25.49472 16404 ft 389 kts 164°
2026-05-07 18:44 35.87486 25.50487 15931 ft 386 kts 164°
2026-05-07 18:44 35.84940 25.51502 15454 ft 383 kts 164°
2026-05-07 18:45 35.82419 25.52508 14978 ft 380 kts 164°
2026-05-07 18:45 35.79933 25.53501 14505 ft 377 kts 163°
2026-05-07 18:45 35.77456 25.54491 14031 ft 375 kts 163°
2026-05-07 18:45 35.74998 25.55473 13557 ft 372 kts 163°
2026-05-07 18:46 35.72552 25.56450 13082 ft 370 kts 163°
2026-05-07 18:46 35.70166 25.57540 12606 ft 368 kts 156°
2026-05-07 18:46 35.67951 25.59137 12128 ft 367 kts 144°
2026-05-07 18:46 35.65945 25.61046 11658 ft 365 kts 141°
2026-05-07 18:47 35.64001 25.63008 11185 ft 363 kts 140°
2026-05-07 18:47 35.62062 25.64932 10708 ft 359 kts 144°
2026-05-07 18:47 35.59931 25.66147 10225 ft 346 kts 169°
2026-05-07 18:47 35.57667 25.66116 9763 ft 327 kts 196°
2026-05-07 18:48 35.55750 25.64873 9292 ft 309 kts 224°
2026-05-07 18:48 35.54621 25.62724 8811 ft 294 kts 255°
2026-05-07 18:48 35.54324 25.60296 8353 ft 287 kts 264°
2026-05-07 18:48 35.53963 25.57900 7872 ft 283 kts 255°
2026-05-07 18:49 35.53324 25.55653 7397 ft 277 kts 247°
2026-05-07 18:49 35.52495 25.53556 6924 ft 272 kts 242°
2026-05-07 18:49 35.51567 25.51568 6450 ft 268 kts 239°
2026-05-07 18:49 35.50587 25.49632 5972 ft 264 kts 238°
2026-05-07 18:50 35.49610 25.47774 5501 ft 261 kts 237°
2026-05-07 18:50 35.48624 25.45923 5026 ft 259 kts 237°
2026-05-07 18:50 35.47629 25.44063 4650 ft 261 kts 237°
2026-05-07 18:50 35.46631 25.42228 4414 ft 257 kts 232°
2026-05-07 18:51 35.45291 25.40849 4118 ft 254 kts 203°
2026-05-07 18:51 35.43588 25.40455 3815 ft 251 kts 174°
2026-05-07 18:51 35.41948 25.41077 3519 ft 248 kts 152°
2026-05-07 18:51 35.40448 25.42119 3238 ft 247 kts 149°
2026-05-07 18:52 35.38972 25.43180 2985 ft 244 kts 149°
2026-05-07 18:52 35.37451 25.43980 2785 ft 240 kts 173°
2026-05-07 18:52 35.35829 25.43627 2530 ft 239 kts 211°
2026-05-07 18:52 35.34741 25.42165 2339 ft 235 kts 243°
2026-05-07 18:53 35.34147 25.40377 2286 ft 217 kts 250°
2026-05-07 18:53 35.33661 25.38666 2245 ft 211 kts 250°
2026-05-07 18:53 35.33154 25.37048 2296 ft 189 kts 247°
2026-05-07 18:53 35.32806 25.35594 2236 ft 168 kts 262°
2026-05-07 18:54 35.32811 25.34247 2196 ft 156 kts 274°
2026-05-07 18:54 35.32946 25.32925 2181 ft 155 kts 276°
2026-05-07 18:54 35.33067 25.31604 2047 ft 155 kts 274°
2026-05-07 18:54 35.33157 25.30296 1716 ft 154 kts 273°
2026-05-07 18:55 35.33247 25.28993 1348 ft 153 kts 272°
2026-05-07 18:55 35.33329 25.27729 1127 ft 149 kts 271°
2026-05-07 18:55 35.33399 25.26453 987 ft 149 kts 271°
2026-05-07 18:55 35.33482 25.25221 923 ft 144 kts 272°
2026-05-07 18:56 35.33571 25.23993 876 ft 142 kts 272°
2026-05-07 18:56 35.33653 25.22799 735 ft 142 kts 272°
2026-05-07 18:56 35.33736 25.21599 567 ft 141 kts 272°
2026-05-07 18:56 35.33820 25.20394 364 ft 141 kts 271°
2026-05-07 18:57 35.33895 25.19207 164 ft 140 kts 272°
2026-05-07 18:57 35.33976 25.18058 95 ft 122 kts 272°
2026-05-07 18:57 35.34029 25.17232 95 ft 73 kts 275°
2026-05-07 18:57 35.34058 25.16799 91 ft 28 kts 274°
2026-05-07 18:58 35.34047 25.16670 90 ft 9 kts 198°
2026-05-07 18:58 35.33988 25.16727 94 ft 15 kts 122°
2026-05-07 18:58 35.33955 25.16868 99 ft 18 kts 93°
2026-05-07 18:58 35.33946 25.17025 100 ft 18 kts 96°
2026-05-07 18:59 35.33934 25.17154 108 ft 14 kts 95°
2026-05-07 18:59 35.33924 25.17307 111 ft 20 kts 95°
2026-05-07 18:59 35.33913 25.17470 112 ft 11 kts 98°
2026-05-07 18:59 35.33879 25.17506 117 ft 2 kts 184°
2026-05-07 19:00 35.33858 25.17498 119 ft 5 kts 223°
2026-05-07 19:00 35.33857 25.17452 120 ft 5 kts 280°
2026-05-07 19:00 35.33860 25.17441 119 ft 0 kts 296°